Weather History for Sexton Summit, OR

Change the Weather History Date:

Wednesday, August 27, 2014

  Actual Average Record
Temperature  
Mean Temperature 75 °F -  
Max Temperature 84 °F 71 °F 89 °F (2006)
Min Temperature 66 °F 51 °F 42 °F (2010)
Cooling Degree Days 10    
Growing Degree Days 25 (Base 50)    
Moisture  
Dew Point 48 °F    
Average Humidity 42    
Maximum Humidity 54    
Minimum Humidity 26    
Precipitation  
Precipitation 0.00 in - - ()
Sea Level Pressure  
Sea Level Pressure 29.99 in    
Wind  
Wind Speed 6 mph (NNE)    
Max Wind Speed 13 mph    
Max Gust Speed 20 mph    
Visibility 10 miles    
Events      
Averages and records for this station are not official NWS values.
T = Trace of Precipitation, MM = Missing Value Source: NWS Daily Summary

Daily Weather History Graph

Daily Weather History Graph

Search for Another Location

Airport:

Trip Planner

Search our weather history database for the weather conditions in past years. The results will help you decide how hot, cold, wet, or windy it might be!

Date:

Astronomy

Aug. 27, 2014 Rise Set
Actual Time 6:33 AM PDT 7:55 PM PDT
Civil Twilight 6:03 AM PDT 8:25 PM PDT
Nautical Twilight 5:28 AM PDT 9:00 PM PDT
Astronomical Twilight 4:50 AM PDT 9:37 PM PDT
Moon 8:38 AM PDT (8/27) 8:46 PM PDT (8/27)
Length of Visible Light 14h 21m
Length of Day
13h 22m
Waxing Crescent, 4% of the Moon is Illuminated
Aug 27
Waxing Crescent
Sep 2
First Quarter
Sep 8
Full
Sep 15
Last Quarter
Sep 23
New

Hourly Weather History & Observations

Time (PDT) Temp. Dew Point Humidity Pressure Visibility Wind Dir Wind Speed Gust Speed Precip Events Conditions
12:56 AM 66.0 °F 48.9 °F 54% 29.96 in 10.0 mi North 11.5 mph - N/A   Clear
1:56 AM 66.9 °F 48.0 °F 51% 29.96 in 10.0 mi North 11.5 mph - N/A   Clear
2:56 AM 66.9 °F 46.0 °F 47% 29.95 in 10.0 mi NNE 6.9 mph - N/A   Clear
3:56 AM 69.1 °F 44.1 °F 40% 29.94 in 10.0 mi SE 4.6 mph - N/A   Clear
4:56 AM 68.0 °F 46.0 °F 45% 29.94 in 10.0 mi SE 4.6 mph - N/A   Clear
5:56 AM 66.0 °F 46.9 °F 50% 29.97 in 10.0 mi SSE 4.6 mph - N/A   Clear
6:56 AM 68.0 °F 46.0 °F 45% 29.99 in 10.0 mi East 3.5 mph - N/A   Clear
7:56 AM 69.1 °F 48.9 °F 49% 30.01 in 10.0 mi Calm Calm - N/A   Clear
8:56 AM 71.1 °F 48.9 °F 45% 30.01 in 10.0 mi Calm Calm - N/A   Clear
9:56 AM 73.0 °F 50.0 °F 44% 30.02 in 10.0 mi Calm Calm - N/A   Clear
10:56 AM 75.0 °F 48.9 °F 40% 30.03 in 10.0 mi Calm Calm - N/A   Clear
11:56 AM 77.0 °F 50.0 °F 39% 30.02 in 10.0 mi Calm Calm - N/A   Clear
12:56 PM 78.1 °F 50.0 °F 37% 30.02 in 10.0 mi Variable 4.6 mph - N/A   Clear
1:56 PM 80.1 °F 45.0 °F 29% 30.00 in 10.0 mi Calm Calm - N/A   Clear
2:56 PM 82.9 °F 46.0 °F 27% 29.99 in 10.0 mi Variable 3.5 mph - N/A   Clear
3:56 PM 84.0 °F 46.0 °F 26% 29.96 in 10.0 mi Variable 3.5 mph - N/A   Clear
4:56 PM 82.9 °F 46.0 °F 27% 29.96 in 10.0 mi NNW 5.8 mph - N/A   Clear
5:56 PM 82.0 °F 46.9 °F 29% 29.97 in 10.0 mi Calm Calm - N/A   Clear
6:56 PM 77.0 °F 48.9 °F 37% 29.97 in 10.0 mi Variable 3.5 mph - N/A   Clear
7:56 PM 72.0 °F 48.9 °F 44% 29.99 in 10.0 mi Variable 5.8 mph - N/A   Clear
8:56 PM 69.1 °F 48.0 °F 47% 30.01 in 10.0 mi NNW 12.7 mph 19.6 mph N/A   Clear
9:56 PM 66.9 °F 46.9 °F 49% 30.02 in 10.0 mi North 10.4 mph - N/A   Clear
10:56 PM 66.0 °F 46.9 °F 50% 30.01 in 10.0 mi North 11.5 mph - N/A   Clear
11:56 PM 66.9 °F 48.9 °F 52% 30.00 in 10.0 mi North 10.4 mph - N/A   Clear